Home > Weather > Chicago > Past weeks

Flag for USA Weather for the Past 2 Weeks in Chicago, Illinois, USA

Now
48 °F

Overcast.


Feels Like: 44 °F
Forecast: 44 / 49 °F
Wind: 9 mph from Northeast

Location: Chicago Midway Airport

Current Time: Apr 28, 2016 at 7:55:25 PM

Latest Report: Apr 28, 2016 at 6:53 PM


Visibility: 9 mi

Pressure: 29.97 "Hg

Humidity: 74%

Dew Point: 40 °F

Location of ChicagoLocation

Historic Weather in Chicago — Graph

°F

Chicago Temperature Yesterday

Maximum temperature yesterday: 50 °F (at 1:53 PM)
Minimum temperature yesterday: 44 °F (at 3:53 AM)
Average temperature yesterday: 47 °F

High & Low Weather Summary for the Past Weeks

 TemperatureHumidityPressure
High83 °F (Apr 18, 1:53 PM)93% (Apr 21, 5:53 AM)30.40 "Hg (Apr 21, 5:53 AM)
Low41 °F (Apr 14, 6:53 AM)19% (Apr 18, 1:53 PM)29.56 "Hg (Apr 25, 6:53 PM)
Average57 °F57%30.06 "Hg
* Reported Apr 13 5:53 PM — Apr 28 5:53 PM, Chicago, Weather by CustomWeather, © 2016

Note: Actual official high and low records may vary slightly from our data, if they occured in-between our weather recording intervals... More about our weather records

Advertising

Chicago Weather History for the Previous 24 Hours

Scroll right to see more
 ConditionsComfort  
Time TempWeatherWind HumidityBarometerVisibility
5:53 PM
Thu, Apr 28
49 °FOvercast.10 mph71%29.95 "Hg9 mi
4:53 PM49 °FOvercast.9 mph74%29.93 "Hg9 mi
3:53 PM50 °FOvercast.9 mph74%29.93 "Hg9 mi
2:53 PM50 °FOvercast.9 mph74%29.91 "Hg8 mi
1:53 PM51 °FOvercast.12 mph74%29.90 "Hg8 mi
12:53 PM49 °FOvercast.12 mph77%29.90 "Hg8 mi
11:53 AM48 °FLow clouds.12 mph83%29.89 "Hg7 mi
10:53 AM48 °FFog.7 mph83%29.89 "Hg4 mi
9:53 AM47 °FLow clouds.12 mph80%29.87 "Hg8 mi
8:53 AM46 °FLow clouds.13 mph83%29.86 "Hg9 mi
7:53 AM47 °FOvercast.14 mph83%29.84 "Hg9 mi
6:53 AM46 °FMostly cloudy.14 mph83%29.82 "Hg8 mi
5:53 AM45 °FFog.14 mph90%29.82 "Hg5 mi
4:53 AM46 °FFog.8 mph89%29.83 "Hg3 mi
3:53 AM46 °FLight rain. Fog.6 mph89%29.85 "Hg1 mi
2:58 AM46 °FThunderstorms. Overcast.9 mph86%29.82 "Hg8 mi
1:53 AM46 °FLight rain. Overcast.12 mph83%29.82 "Hg7 mi
12:53 AM46 °FRain. Fog.10 mph83%29.83 "Hg2 mi
11:53 PM
Wed, Apr 27
50 °FLight rain. Overcast.10 mph68%29.83 "Hg10 mi
10:53 PM50 °FOvercast.13 mph68%29.84 "Hg10 mi
9:53 PM49 °FOvercast.13 mph77%29.84 "Hg10 mi
8:53 PM48 °FLight rain. Mostly cloudy.9 mph80%29.84 "Hg9 mi
7:53 PM45 °FLight rain. Mostly cloudy.9 mph86%29.83 "Hg7 mi
Weather by CustomWeather, © 2016

See weather overviewHow to use our weather pages